Breckenridge, MN

12:05 AM CST on February 23, 2017 (GMT -0600)
Stern

Weather History for KBWP - October, 2012

Change the Weather History Date:

Friday, October 5, 2012

  Actual Average (KFFM) Record (KFFM)
Temperature  
Mean Temperature 34 °F -  
Max Temperature 39 °F 61 °F 93 °F (1963)
Min Temperature 28 °F 38 °F 24 °F (1988)
Degree Days  
Heating Degree Days 32    
Moisture  
Dew Point 27 °F    
Average Humidity 78    
Maximum Humidity 93    
Minimum Humidity 61    
Precipitation  
Precipitation 0.00 in - - ()
Sea Level Pressure  
Sea Level Pressure 30.22 in    
Wind  
Wind Speed 16 mph (NW)    
Max Wind Speed 24 mph    
Max Gust Speed 32 mph    
Visibility 10 miles    
Events      
Averages and records for this station are not official NWS values.
T = Trace of Precipitation, MM = Missing Value Source: NWS Daily Summary

Daily Weather History Graph

Daily Weather History Graph

Search for Another Location

Airport or City:

Trip Planner

Search our weather history database for the weather conditions in past years. The results will help you decide how hot, cold, wet, or windy it might be!

Date:

Astronomy

Oct. 05, 2012 Rise Set
Actual Time 7:30 AM CDT 6:57 PM CDT
Civil Twilight 7:00 AM CDT 7:27 PM CDT
Nautical Twilight 6:26 AM CDT 8:02 PM CDT
Astronomical Twilight 5:50 AM CDT 8:37 PM CDT
Moon 10:06 PM CDT (10/5) 12:55 PM CDT (10/5)
Length of Visible Light 12h 26m
Length of Day
11h 26m
Waning Gibbous, 74% of the Moon is Illuminated
Oct 5
Waning Gibbous
Oct 8
Last Quarter
Oct 15
New
Oct 21
First Quarter
Oct 29
Full

Hourly Weather History & Observations

Time (CDT) Temp. Windchill Dew Point Humidity Pressure Visibility Wind Dir Wind Speed Gust Speed Precip Events Conditions
12:15 AM 33.8 °F 25.3 °F 28.4 °F 81% 30.21 in 10.0 mi WNW 11.5 mph - N/A   Scattered Clouds
12:35 AM 32.0 °F 21.6 °F 28.4 °F 87% 30.21 in 10.0 mi WNW 15.0 mph - N/A   Clear
12:55 AM 32.0 °F 21.6 °F 28.4 °F 87% 30.21 in 10.0 mi WNW 15.0 mph - N/A   Clear
1:15 AM 32.0 °F 22.1 °F 28.4 °F 87% 30.21 in 10.0 mi WNW 13.8 mph - N/A   Clear
1:35 AM 32.0 °F 22.1 °F 28.4 °F 87% 30.21 in 10.0 mi WNW 13.8 mph - N/A   Clear
1:55 AM 32.0 °F 22.1 °F 28.4 °F 87% 30.21 in 10.0 mi WNW 13.8 mph - N/A   Clear
2:15 AM 32.0 °F 22.1 °F 28.4 °F 87% 30.21 in 10.0 mi WNW 13.8 mph - N/A   Clear
2:35 AM 32.0 °F 22.1 °F 26.6 °F 80% 30.21 in 10.0 mi WNW 13.8 mph - N/A   Clear
2:55 AM 30.2 °F 20.2 °F 26.6 °F 86% 30.20 in 10.0 mi West 12.7 mph - N/A   Clear
3:15 AM 30.2 °F 19.8 °F 26.6 °F 86% 30.20 in 10.0 mi West 13.8 mph - N/A   Clear
3:35 AM 30.2 °F 20.2 °F 26.6 °F 86% 30.20 in 10.0 mi WNW 12.7 mph - N/A   Clear
3:55 AM 30.2 °F 20.2 °F 26.6 °F 86% 30.20 in 10.0 mi WNW 12.7 mph - N/A   Clear
4:15 AM 30.2 °F 20.2 °F 26.6 °F 86% 30.19 in 10.0 mi WNW 12.7 mph - N/A   Clear
4:35 AM 30.2 °F 20.2 °F 26.6 °F 86% 30.19 in 10.0 mi WNW 12.7 mph - N/A   Clear
4:55 AM 28.4 °F 17.5 °F 26.6 °F 93% 30.19 in 10.0 mi WNW 13.8 mph - N/A   Clear
5:15 AM 30.2 °F 19.3 °F 26.6 °F 86% 30.19 in 10.0 mi WNW 15.0 mph - N/A   Clear
5:35 AM 30.2 °F 18.9 °F 24.8 °F 80% 30.19 in 10.0 mi WNW 16.1 mph - N/A   Clear
5:55 AM 28.4 °F 18.0 °F 24.8 °F 86% 30.19 in 10.0 mi WNW 12.7 mph - N/A   Clear
6:15 AM 28.4 °F 17.5 °F 24.8 °F 86% 30.19 in 10.0 mi WNW 13.8 mph - N/A   Clear
6:35 AM 28.4 °F 17.0 °F 24.8 °F 86% 30.19 in 10.0 mi WNW 15.0 mph - N/A   Clear
6:55 AM 28.4 °F 17.0 °F 24.8 °F 86% 30.19 in 10.0 mi WNW 15.0 mph - N/A   Clear
7:15 AM 28.4 °F 17.0 °F 23.0 °F 80% 30.19 in 10.0 mi WNW 15.0 mph - N/A   Clear
7:35 AM 28.4 °F 17.5 °F 23.0 °F 80% 30.19 in 10.0 mi WNW 13.8 mph - N/A   Clear
7:55 AM 28.4 °F 18.0 °F 23.0 °F 80% 30.20 in 10.0 mi WNW 12.7 mph - N/A   Clear
8:15 AM 28.4 °F 17.5 °F 23.0 °F 80% 30.20 in 10.0 mi WNW 13.8 mph - N/A   Clear
8:35 AM 30.2 °F 19.3 °F 24.8 °F 80% 30.20 in 10.0 mi WNW 15.0 mph - N/A   Clear
8:55 AM 32.0 °F 21.6 °F 24.8 °F 75% 30.21 in 10.0 mi WNW 15.0 mph - N/A   Clear
9:15 AM 32.0 °F 20.8 °F 26.6 °F 80% 30.21 in 10.0 mi WNW 17.3 mph - N/A   Clear
9:35 AM 32.0 °F 20.1 °F 26.6 °F 80% 30.21 in 10.0 mi WNW 19.6 mph - N/A   Clear
9:55 AM 33.8 °F 22.5 °F 26.6 °F 75% 30.22 in 10.0 mi WNW 19.6 mph 24.2 mph N/A   Scattered Clouds
10:15 AM 33.8 °F 21.6 °F 26.6 °F 75% 30.22 in 10.0 mi NW 23.0 mph 27.6 mph N/A   Mostly Cloudy
10:35 AM 35.6 °F 25.2 °F 26.6 °F 70% 30.22 in 10.0 mi NW 18.4 mph 26.5 mph N/A   Overcast
10:55 AM 35.6 °F 25.2 °F 26.6 °F 70% 30.22 in 10.0 mi NNW 18.4 mph 28.8 mph N/A   Overcast
11:35 AM 37.4 °F 27.5 °F 26.6 °F 65% 30.22 in 10.0 mi NW 18.4 mph 25.3 mph N/A   Overcast
11:55 AM 37.4 °F 27.8 °F 26.6 °F 65% 30.22 in 10.0 mi NW 17.3 mph 27.6 mph N/A   Overcast
12:15 PM 37.4 °F 28.2 °F 26.6 °F 65% 30.22 in 10.0 mi NW 16.1 mph - N/A   Overcast
12:35 PM 37.4 °F 26.1 °F 26.6 °F 65% 30.22 in 10.0 mi NNW 24.2 mph 29.9 mph N/A   Overcast
12:55 PM 37.4 °F 26.9 °F 26.6 °F 65% 30.22 in 10.0 mi NW 20.7 mph 26.5 mph N/A   Overcast
1:35 PM 37.4 °F 26.6 °F 26.6 °F 65% 30.22 in 10.0 mi NW 21.9 mph 29.9 mph N/A   Overcast
1:55 PM 37.4 °F 26.6 °F 26.6 °F 65% 30.22 in 10.0 mi NW 21.9 mph 28.8 mph N/A   Overcast
2:15 PM 39.2 °F 29.0 °F 26.6 °F 61% 30.21 in 10.0 mi NW 21.9 mph 29.9 mph N/A   Overcast
2:35 PM 37.4 °F 26.9 °F 26.6 °F 65% 30.21 in 10.0 mi NW 20.7 mph 26.5 mph N/A   Overcast
2:55 PM 37.4 °F 26.1 °F 26.6 °F 65% 30.21 in 10.0 mi NW 24.2 mph 29.9 mph N/A   Overcast
3:15 PM 37.4 °F 27.2 °F 26.6 °F 65% 30.21 in 10.0 mi NW 19.6 mph 27.6 mph N/A   Overcast
3:35 PM 37.4 °F 26.9 °F 26.6 °F 65% 30.21 in 10.0 mi NW 20.7 mph 31.1 mph N/A   Overcast
3:55 PM 39.2 °F 29.6 °F 26.6 °F 61% 30.21 in 10.0 mi NW 19.6 mph 32.2 mph N/A   Overcast
4:15 PM 37.4 °F 27.2 °F 26.6 °F 65% 30.21 in 10.0 mi NW 19.6 mph 24.2 mph N/A   Overcast
4:35 PM 39.2 °F 29.0 °F 26.6 °F 61% 30.21 in 10.0 mi NW 21.9 mph 27.6 mph N/A   Overcast
4:55 PM 39.2 °F 29.3 °F 26.6 °F 61% 30.21 in 10.0 mi NW 20.7 mph 32.2 mph N/A   Overcast
5:15 PM 37.4 °F 26.4 °F 26.6 °F 65% 30.21 in 10.0 mi NW 23.0 mph 28.8 mph N/A   Overcast
5:35 PM 39.2 °F 29.0 °F 26.6 °F 61% 30.21 in 10.0 mi NW 21.9 mph 28.8 mph N/A   Overcast
5:55 PM 37.4 °F 27.5 °F 28.4 °F 70% 30.22 in 7.0 mi NW 18.4 mph 31.1 mph N/A   Overcast
6:15 PM 37.4 °F 27.8 °F 28.4 °F 70% 30.22 in 10.0 mi NNW 17.3 mph 21.9 mph N/A   Overcast
6:35 PM 37.4 °F 26.6 °F 26.6 °F 65% 30.23 in 10.0 mi NNW 21.9 mph 29.9 mph N/A   Overcast
6:55 PM 35.6 °F 24.2 °F 26.6 °F 70% 30.23 in 10.0 mi NNW 21.9 mph 26.5 mph N/A   Overcast
7:15 PM 35.6 °F 25.9 °F 28.4 °F 75% 30.24 in 10.0 mi NNW 16.1 mph 21.9 mph N/A   Mostly Cloudy
7:35 PM 35.6 °F 27.1 °F 28.4 °F 75% 30.25 in 10.0 mi NNW 12.7 mph 20.7 mph N/A   Mostly Cloudy
7:55 PM 35.6 °F 25.5 °F 28.4 °F 75% 30.25 in 10.0 mi NNW 17.3 mph 20.7 mph N/A   Mostly Cloudy
8:15 PM 35.6 °F 25.5 °F 28.4 °F 75% 30.26 in 10.0 mi NW 17.3 mph 23.0 mph N/A   Overcast
8:35 PM 33.8 °F 23.5 °F 30.2 °F 87% 30.26 in 10.0 mi NW 16.1 mph 20.7 mph N/A   Overcast
8:55 PM 33.8 °F 22.8 °F 30.2 °F 87% 30.26 in 10.0 mi NNW 18.4 mph 23.0 mph N/A   Overcast
9:15 PM 33.8 °F 23.2 °F 30.2 °F 87% 30.27 in 10.0 mi NNW 17.3 mph 20.7 mph N/A   Overcast
9:35 PM 33.8 °F 24.3 °F 30.2 °F 87% 30.27 in 10.0 mi NNW 13.8 mph - N/A   Overcast
9:55 PM 33.8 °F 23.5 °F 30.2 °F 87% 30.27 in 10.0 mi NW 16.1 mph - N/A   Overcast
10:35 PM 32.0 °F 21.6 °F 30.2 °F 93% 30.27 in 10.0 mi NW 15.0 mph 20.7 mph N/A   Overcast
10:55 PM 32.0 °F 22.1 °F 30.2 °F 93% 30.27 in 10.0 mi NNW 13.8 mph 20.7 mph N/A   Overcast
11:15 PM 32.0 °F 21.6 °F 30.2 °F 93% 30.27 in 10.0 mi NNW 15.0 mph - N/A   Overcast
11:35 PM 32.0 °F 22.5 °F 30.2 °F 93% 30.27 in 10.0 mi NNW 12.7 mph - N/A   Overcast
11:55 PM 32.0 °F 22.5 °F 30.2 °F 93% 30.27 in 10.0 mi NNW 12.7 mph - N/A   Overcast